| time (UTC) | temp F | wind direction | speed knots | gust knots | rain 1hr in | rain 24hr in | rain mn in | humidity % | barometer mb |
| 20260510054542 | 67 | 0 | 0.0 | 1.7 | 0.00 | 0.07 | 0.00 | 97 | 1012.1 |
| 20260510053050 | 67 | 0 | 0.0 | 1.7 | 0.00 | 0.07 | 0.00 | 97 | 1012.1 |
| 20260510051538 | 67 | 93 | 0.0 | 1.7 | 0.00 | 0.07 | 0.00 | 98 | 1012.1 |
| 20260510050058 | 68 | 0 | 0.0 | 1.7 | 0.00 | 0.07 | 0.00 | 98 | 1012.1 |
| 20260510044547 | 68 | 108 | 0.9 | 1.7 | 0.00 | 0.07 | 0.07 | 98 | 1012.3 |
| 20260510043048 | 69 | 51 | 0.0 | 1.7 | 0.00 | 0.07 | 0.07 | 98 | 1012.5 |
| 20260510041543 | 69 | 178 | 0.9 | 3.5 | 0.00 | 0.07 | 0.07 | 98 | 1012.8 |
| 20260510040042 | 69 | 146 | 0.9 | 3.5 | 0.00 | 0.07 | 0.07 | 98 | 1012.9 |
| 20260510034538 | 69 | 149 | 2.6 | 5.2 | 0.00 | 0.07 | 0.07 | 98 | 1012.7 |
| 20260510033054 | 69 | 153 | 2.6 | 6.1 | 0.00 | 0.07 | 0.07 | 98 | 1012.6 |
| 20260510031548 | 70 | 163 | 0.9 | 5.2 | 0.00 | 0.07 | 0.07 | 98 | 1012.5 |
| 20260510030044 | 70 | 93 | 2.6 | 7.0 | 0.01 | 0.07 | 0.07 | 98 | 1012.3 |
| 20260510024545 | 70 | 70 | 0.9 | 7.8 | 0.01 | 0.07 | 0.07 | 98 | 1012.4 |
| 20260510023047 | 70 | 161 | 4.3 | 8.7 | 0.02 | 0.07 | 0.07 | 98 | 1012.4 |
| 20260510021635 | 70 | 51 | 1.7 | 7.8 | 0.02 | 0.07 | 0.07 | 98 | 1012.2 |
| 20260510020044 | 70 | 131 | 2.6 | 9.6 | 0.01 | 0.06 | 0.06 | 99 | 1012.2 |
| 20260510014554 | 70 | 169 | 3.5 | 7.0 | 0.01 | 0.06 | 0.06 | 98 | 1011.8 |
| 20260510013055 | 70 | 193 | 1.7 | 9.6 | 0.01 | 0.05 | 0.05 | 98 | 1011.9 |
| 20260510011544 | 70 | 137 | 1.7 | 7.0 | 0.01 | 0.05 | 0.05 | 98 | 1011.3 |
| 20260510010049 | 70 | 140 | 4.3 | 7.8 | 0.03 | 0.05 | 0.05 | 98 | 1011.1 |
| 20260510004539 | 70 | 163 | 0.9 | 5.2 | 0.03 | 0.08 | 0.05 | 98 | 1011.3 |
| 20260510003045 | 70 | 157 | 0.9 | 2.6 | 0.02 | 0.07 | 0.04 | 97 | 1011.5 |
| 20260510001544 | 70 | 221 | 0.0 | 2.6 | 0.02 | 0.07 | 0.04 | 97 | 1011.8 |
| 20260510000045 | 71 | 336 | 1.7 | 4.3 | 0.01 | 0.05 | 0.02 | 97 | 1011.6 |
| 20260509234544 | 71 | 137 | 0.9 | 2.6 | 0.01 | 0.05 | 0.02 | 97 | 1010.8 |
| 20260509233041 | 71 | 26 | 0.9 | 2.6 | 0.01 | 0.05 | 0.02 | 97 | 1010.8 |
| 20260509231549 | 71 | 336 | 1.7 | 4.3 | 0.01 | 0.05 | 0.02 | 96 | 1010.6 |
| 20260509230041 | 71 | 115 | 1.7 | 6.1 | 0.00 | 0.04 | 0.01 | 96 | 1010.9 |
| 20260509224542 | 71 | 162 | 2.6 | 5.2 | 0.00 | 0.04 | 0.01 | 95 | 1011.0 |
| 20260509223047 | 71 | 194 | 2.6 | 6.1 | 0.00 | 0.04 | 0.01 | 95 | 1010.2 |
| 20260509221543 | 72 | 188 | 0.9 | 4.3 | 0.00 | 0.04 | 0.01 | 94 | 1010.3 |
| 20260509220047 | 72 | 196 | 0.9 | 6.1 | 0.00 | 0.04 | 0.01 | 93 | 1010.3 |
| 20260509214542 | 73 | 150 | 1.7 | 8.7 | 0.00 | 0.05 | 0.01 | 92 | 1010.1 |
| 20260509213102 | 73 | 158 | 1.7 | 6.1 | 0.00 | 0.05 | 0.01 | 92 | 1010.0 |
| 20260509211544 | 73 | 187 | 2.6 | 7.8 | 0.00 | 0.05 | 0.01 | 91 | 1009.9 |
| 20260509210049 | 73 | 108 | 3.5 | 10.4 | 0.00 | 0.05 | 0.01 | 92 | 1009.8 |
| 20260509204543 | 72 | 151 | 1.7 | 7.0 | 0.00 | 0.07 | 0.01 | 92 | 1010.1 |
| 20260509203042 | 71 | 107 | 1.7 | 6.1 | 0.00 | 0.07 | 0.01 | 92 | 1010.7 |
| 20260509201540 | 71 | 265 | 2.6 | 7.8 | 0.00 | 0.07 | 0.01 | 92 | 1010.8 |
| 20260509200040 | 72 | 162 | 2.6 | 7.8 | 0.00 | 0.07 | 0.01 | 92 | 1011.0 |
| 20260509194554 | 72 | 117 | 2.6 | 10.4 | 0.00 | 0.07 | 0.01 | 92 | 1010.9 |
| 20260509193048 | 72 | 77 | 1.7 | 7.8 | 0.00 | 0.07 | 0.01 | 92 | 1010.9 |
| 20260509191545 | 72 | 169 | 1.7 | 6.1 | 0.00 | 0.07 | 0.01 | 91 | 1011.0 |
| 20260509190040 | 73 | 132 | 0.9 | 5.2 | 0.00 | 0.07 | 0.01 | 94 | 1010.8 |
| 20260509184550 | 74 | 325 | 0.9 | 7.0 | 0.00 | 0.07 | 0.01 | 96 | 1010.6 |
| 20260509183047 | 73 | 115 | 0.9 | 5.2 | 0.00 | 0.07 | 0.01 | 96 | 1010.7 |
| 20260509181550 | 74 | 65 | 0.9 | 7.0 | 0.00 | 0.07 | 0.01 | 98 | 1010.9 |
| 20260509180054 | 74 | 93 | 0.9 | 7.0 | 0.00 | 0.07 | 0.01 | 99 | 1010.8 |
| 20260509174542 | 74 | 265 | 0.9 | 5.2 | 0.00 | 0.15 | 0.01 | 99 | 1011.0 |
| 20260509173052 | 74 | 128 | 0.9 | 3.5 | 0.00 | 0.15 | 0.01 | 99 | 1011.1 |
| 20260509171541 | 74 | 265 | 0.0 | 2.6 | 0.00 | 0.15 | 0.01 | 100 | 1011.2 |
| 20260509170044 | 74 | 51 | 1.7 | 6.1 | 0.00 | 0.15 | 0.01 | 99 | 1011.4 |
| 20260509164544 | 74 | 137 | 1.7 | 4.3 | 0.00 | 1.26 | 0.01 | 100 | 1011.5 |
| 20260509163040 | 74 | 34 | 0.9 | 5.2 | 0.00 | 1.26 | 0.01 | 100 | 1011.4 |
| 20260509161553 | 74 | 123 | 0.9 | 3.5 | 0.00 | 1.26 | 0.01 | 100 | 1011.5 |
| 20260509160039 | 74 | 165 | 0.9 | 4.3 | 0.00 | 1.26 | 0.01 | 100 | 1011.6 |
| 20260509154549 | 73 | 126 | 0.9 | 3.5 | 0.00 | 2.11 | 0.01 | 100 | 1011.5 |
| 20260509153055 | 73 | 9 | 0.9 | 3.5 | 0.00 | 2.11 | 0.01 | 100 | 1011.1 |
| 20260509151541 | 73 | 137 | 0.9 | 2.6 | 0.00 | 2.11 | 0.01 | 100 | 1011.0 |
| 20260509150041 | 73 | 178 | 0.9 | 3.5 | 0.00 | 2.11 | 0.01 | 100 | 1011.0 |
| 20260509144544 | 72 | 319 | 0.9 | 2.6 | 0.00 | 2.20 | 0.01 | 100 | 1011.0 |
| 20260509143043 | 72 | 9 | 0.9 | 3.5 | 0.00 | 2.20 | 0.01 | 100 | 1010.9 |
| 20260509141544 | 72 | 123 | 0.9 | 2.6 | 0.00 | 2.20 | 0.01 | 100 | 1010.8 |
| 20260509140056 | 71 | 178 | 0.9 | 3.5 | 0.00 | 2.20 | 0.01 | 100 | 1010.7 |
| 20260509134541 | 71 | 265 | 0.9 | 3.5 | 0.00 | 2.22 | 0.01 | 100 | 1011.0 |
| 20260509133041 | 71 | 76 | 0.9 | 3.5 | 0.00 | 2.22 | 0.01 | 100 | 1010.9 |
| 20260509131537 | 71 | 22 | 0.9 | 4.3 | 0.00 | 2.22 | 0.01 | 100 | 1011.1 |
| 20260509130044 | 71 | 303 | 0.9 | 7.8 | 0.00 | 2.22 | 0.01 | 100 | 1011.2 |
| 20260509124551 | 71 | 64 | 1.7 | 5.2 | 0.00 | 2.22 | 0.01 | 100 | 1011.1 |
| 20260509123042 | 71 | 9 | 1.7 | 4.3 | 0.00 | 2.22 | 0.01 | 100 | 1011.0 |
| 20260509121538 | 70 | 26 | 0.0 | 2.6 | 0.00 | 2.22 | 0.01 | 100 | 1011.0 |
| 20260509120039 | 70 | 0 | 0.0 | 2.6 | 0.01 | 2.22 | 0.01 | 100 | 1010.9 |
| 20260509114544 | 70 | 119 | 0.0 | 1.7 | 0.01 | 2.22 | 0.01 | 100 | 1010.9 |
| 20260509113044 | 70 | 265 | 0.9 | 3.5 | 0.01 | 2.22 | 0.01 | 100 | 1010.6 |
| 20260509111545 | 70 | 129 | 0.0 | 2.6 | 0.01 | 2.22 | 0.01 | 100 | 1010.7 |
| 20260509110044 | 70 | 0 | 0.9 | 3.5 | 0.00 | 2.21 | 0.00 | 100 | 1010.6 |
| 20260509104541 | 70 | 0 | 0.0 | 1.7 | 0.00 | 2.21 | 0.00 | 100 | 1010.4 |
| 20260509103045 | 70 | 34 | 0.0 | 1.7 | 0.00 | 2.21 | 0.00 | 100 | 1010.2 |
| 20260509101539 | 70 | 265 | 0.0 | 1.7 | 0.00 | 2.21 | 0.00 | 100 | 1010.0 |
| 20260509100043 | 70 | 0 | 0.0 | 0.9 | 0.00 | 2.21 | 0.00 | 100 | 1009.8 |
| 20260509094554 | 70 | 0 | 0.0 | 0.9 | 0.00 | 2.21 | 0.00 | 100 | 1009.8 |
| 20260509093042 | 70 | 0 | 0.0 | 1.7 | 0.00 | 2.21 | 0.00 | 100 | 1009.6 |
| 20260509091547 | 70 | 137 | 0.9 | 4.3 | 0.00 | 2.21 | 0.00 | 100 | 1009.4 |
| 20260509090054 | 69 | 141 | 0.9 | 3.5 | 0.00 | 2.21 | 0.00 | 100 | 1009.4 |
| 20260509084537 | 68 | 137 | 0.0 | 0.9 | 0.00 | 2.21 | 0.00 | 100 | 1009.5 |
| 20260509083043 | 68 | 265 | 0.0 | 0.9 | 0.00 | 2.21 | 0.00 | 100 | 1010.0 |
| 20260509081543 | 68 | 0 | 0.0 | 0.9 | 0.00 | 2.21 | 0.00 | 99 | 1009.9 |
| 20260509080048 | 68 | 9 | 0.0 | 0.9 | 0.00 | 2.21 | 0.00 | 99 | 1010.0 |
| 20260509074555 | 69 | 205 | 0.0 | 1.7 | 0.00 | 2.21 | 0.00 | 99 | 1009.9 |
| 20260509073057 | 69 | 126 | 0.0 | 1.7 | 0.00 | 2.21 | 0.00 | 99 | 1009.9 |
| 20260509071542 | 69 | 165 | 0.0 | 4.3 | 0.00 | 2.21 | 0.00 | 99 | 1010.1 |
| 20260509070048 | 69 | 170 | 1.7 | 5.2 | 0.00 | 2.21 | 0.00 | 99 | 1010.2 |
| 20260509064541 | 69 | 173 | 2.6 | 5.2 | 0.00 | 2.21 | 0.00 | 100 | 1010.3 |
| 20260509063053 | 69 | 178 | 1.7 | 4.3 | 0.00 | 2.21 | 0.00 | 99 | 1010.4 |
| 20260509061545 | 69 | 160 | 1.7 | 6.1 | 0.00 | 2.21 | 0.00 | 99 | 1010.5 |
| 20260509060106 | 69 | 161 | 2.6 | 5.2 | 0.00 | 2.21 | 0.00 | 99 | 1010.7 |